Date,TemperatureHighF,TemperatureAvgF,TemperatureLowF,DewpointHighF,DewpointAvgF,DewpointLowF,HumidityHigh,HumidityAvg,HumidityLow,PressureMaxIn,PressureMinIn,WindSpeedMaxMPH,WindSpeedAvgMPH,GustSpeedMaxMPH,PrecipitationSumIn
2013-1-1,41,36,32,40,33,18,99,90,47,0.00,40.00,8,4,18,0.00
2013-1-2,32,29,28,32,28,26,98,96,92,0.00,40.00,4,3,9,0.00
2013-1-3,37,29,25,27,24,19,96,81,57,0.00,40.00,4,2,8,0.00
2013-1-4,34,26,18,24,18,15,91,73,61,0.00,40.00,5,3,15,0.00
2013-1-5,42,30,18,24,20,15,91,68,40,0.00,40.00,4,2,8,0.00
2013-1-6,40,35,32,31,27,21,90,74,53,0.00,40.00,5,3,15,0.00
2013-1-7,48,34,26,25,21,14,79,62,32,0.00,40.00,4,3,15,0.00
2013-1-8,51,38,27,32,26,19,77,62,35,0.00,40.00,6,2,14,0.09
2013-1-9,52,45,35,49,40,29,99,83,66,0.00,40.00,4,1,7,0.15
2013-1-10,64,52,41,50,46,41,99,81,57,0.00,40.00,10,3,17,0.01
2013-1-11,61,57,52,56,51,44,94,82,71,0.00,40.00,10,6,22,0.03
2013-1-12,68,62,58,61,58,56,98,89,74,0.00,40.00,6,4,16,0.04
2013-1-13,65,60,57,57,53,48,98,79,60,0.00,40.00,6,3,16,0.30
2013-1-14,57,41,32,56,40,31,98,97,95,0.00,40.00,7,4,15,1.22
2013-1-15,38,34,32,37,33,32,98,97,96,0.00,40.00,7,3,15,1.15
2013-1-16,49,41,33,49,40,32,100,98,96,0.00,40.00,4,2,12,1.39
2013-1-17,38,31,25,38,29,24,99,92,76,0.00,40.00,6,3,11,0.59
2013-1-18,48,28,20,37,25,18,95,88,65,0.00,40.00,3,2,7,0.44
2013-1-19,46,33,19,33,24,17,93,74,51,0.00,40.00,7,3,15,0.33
2013-1-20,51,39,28,32,25,10,79,57,38,0.00,40.00,7,4,17,0.02
2013-1-21,42,30,20,21,13,3,80,53,27,0.00,40.00,10,4,21,0.00
2013-1-22,25,17,11,3,-4,-9,55,39,25,0.00,40.00,6,4,19,0.00
2013-1-23,32,22,12,17,5,-4,56,49,40,0.00,40.00,5,3,12,0.00
2013-1-24,36,23,14,25,5,-6,65,48,28,0.00,40.00,8,5,21,0.00
2013-1-25,30,24,13,29,17,-1,97,75,43,0.00,40.00,8,4,20,0.00
2013-1-26,37,28,23,30,25,21,97,87,75,0.00,40.00,5,3,11,0.30
2013-1-27,47,33,18,35,24,16,92,72,45,0.00,40.00,3,2,9,0.11
2013-1-28,51,44,37,47,38,31,96,83,65,0.00,40.00,8,4,19,0.18
2013-1-29,65,56,48,55,48,45,94,77,60,0.00,40.00,8,5,19,0.18
2013-1-30,62,55,41,54,50,38,98,85,71,0.00,40.00,11,6,31,2.33
2013-1-31,41,30,26,38,19,16,90,65,55,0.00,40.00,7,6,26,0.49
2013-2-1,31,18,8,27,7,-1,93,64,41,0.00,40.00,8,4,21,0.07
2013-2-2,26,21,11,25,15,2,94,78,42,0.00,40.00,7,3,19,0.01
2013-2-3,32,28,23,28,23,14,94,84,68,0.00,40.00,7,4,20,0.09
2013-2-4,41,28,13,23,18,11,91,69,42,0.00,40.00,7,3,17,0.16
2013-2-5,45,39,35,34,29,22,75,67,54,0.00,40.00,5,4,15,0.01
2013-2-6,50,40,30,34,27,21,93,61,34,0.00,40.00,6,3,14,0.00
2013-2-7,54,44,31,36,27,21,79,53,37,0.00,40.00,8,4,16,0.00
2013-2-8,47,38,29,41,33,22,97,84,66,0.00,40.00,7,4,20,0.08
2013-2-9,48,34,25,23,18,7,79,56,21,0.00,40.00,7,4,12,0.01
2013-2-10,56,46,34,39,19,7,87,40,15,0.00,40.00,11,6,22,0.08
2013-2-11,53,48,40,49,39,18,98,74,41,0.00,40.00,7,5,19,0.25
2013-2-12,51,40,31,26,21,16,63,49,30,0.00,40.00,6,3,14,0.05
2013-2-13,41,37,31,39,31,24,96,82,51,0.00,40.00,5,3,13,0.29
2013-2-14,45,36,25,31,27,23,94,71,49,0.00,40.00,5,3,14,0.01
2013-2-15,49,35,29,36,30,26,96,84,54,0.00,40.00,6,2,16,0.07
2013-2-16,29,25,20,26,18,10,88,76,50,0.00,40.00,7,4,18,0.02
2013-2-17,30,22,14,14,7,2,85,54,32,0.00,40.00,8,5,20,0.02
2013-2-18,51,34,18,27,16,8,68,51,32,0.00,40.00,7,4,16,0.01
2013-2-19,46,37,29,40,24,11,96,63,35,0.00,40.00,10,6,25,0.27
2013-2-20,37,28,20,13,9,6,57,45,28,0.00,40.00,7,4,20,0.05
2013-2-21,44,30,15,33,14,10,92,56,24,0.00,40.00,5,2,9,0.05
2013-2-22,55,45,35,42,39,32,95,80,61,0.00,40.00,9,5,20,0.22
2013-2-23,57,48,40,45,42,33,98,79,52,0.00,40.00,4,2,8,0.01
2013-2-24,47,37,28,33,23,17,85,59,31,0.00,40.00,7,3,14,0.00
2013-2-25,53,37,25,26,22,18,84,56,27,0.00,40.00,8,3,16,0.00
2013-2-26,48,41,37,42,35,26,94,78,52,0.00,40.00,14,9,27,0.44
2013-2-27,39,35,31,34,31,29,96,86,77,0.00,40.00,6,4,16,0.03
2013-2-28,32,29,27,29,25,21,94,84,68,0.00,40.00,8,5,17,0.12
2013-3-1,36,31,28,31,28,26,95,90,73,0.00,40.00,5,3,11,0.08
2013-3-2,29,26,21,27,22,17,94,86,73,0.00,40.00,6,4,14,0.01
2013-3-3,29,23,18,20,16,12,88,77,60,0.00,40.00,6,4,14,0.07
2013-3-4,46,31,15,26,16,12,89,58,27,0.00,40.00,4,2,8,0.13
2013-3-5,44,39,29,43,34,23,98,83,55,0.00,40.00,10,3,22,1.16
2013-3-6,29,26,23,26,23,20,94,88,82,0.00,40.00,9,5,21,0.37
2013-3-7,31,27,25,25,23,22,93,84,74,0.00,40.00,5,3,10,0.10
2013-3-8,39,30,22,25,23,20,91,76,54,0.00,40.00,5,3,12,0.05
2013-3-9,65,44,24,31,22,16,91,52,17,0.00,40.00,4,2,10,0.01
2013-3-10,69,57,49,31,26,23,37,31,23,0.00,40.00,9,5,19,0.00
2013-3-11,58,52,48,48,40,27,94,65,35,0.00,40.00,13,8,29,0.48
2013-3-12,49,38,33,47,32,24,97,80,52,0.00,40.00,5,3,11,0.61
2013-3-13,35,31,24,27,20,14,86,66,52,0.00,40.00,8,4,19,0.03
2013-3-14,42,29,21,17,13,10,78,54,29,0.00,40.00,6,4,14,0.01
2013-3-15,57,40,27,35,24,12,68,52,39,0.00,40.00,7,3,16,0.00
2013-3-16,69,57,46,54,44,35,90,63,41,0.00,40.00,7,5,22,0.12
2013-3-17,55,45,42,47,43,40,98,92,73,0.00,40.00,6,3,10,0.09
2013-3-18,53,46,41,48,43,37,98,89,71,0.00,40.00,10,5,23,1.03
2013-3-19,51,43,34,47,22,1,98,52,18,0.00,40.00,8,6,22,0.15
2013-3-20,48,36,26,28,11,-1,91,38,20,0.00,40.00,7,4,19,0.00
2013-3-21,29,22,17,21,9,4,75,56,38,0.00,40.00,7,5,19,0.00
2013-3-22,45,27,12,16,10,8,87,54,23,0.00,40.00,5,2,11,0.00
2013-3-23,47,39,33,32,23,11,68,52,37,0.00,40.00,4,2,6,0.00
2013-3-24,44,41,38,42,37,27,96,85,61,0.00,40.00,10,5,20,0.92
2013-3-25,38,30,26,37,26,21,96,86,60,0.00,40.00,10,6,21,0.78
2013-3-26,35,28,26,29,24,21,89,84,69,0.00,40.00,7,4,18,0.12
2013-3-27,36,30,26,24,21,17,85,68,51,0.00,40.00,7,4,15,0.03
2013-3-28,46,40,30,25,20,17,66,46,37,0.00,40.00,6,3,14,0.00
2013-3-29,52,37,25,31,24,20,86,62,30,0.00,40.00,6,2,14,0.00
2013-3-30,56,43,29,37,32,28,97,68,37,0.00,40.00,5,2,12,0.00
2013-3-31,53,48,44,49,42,-100,97,86,63,0.00,40.00,6,3,16,0.37
2013-4-1,53,43,36,44,36,26,99,80,43,0.00,40.00,7,3,21,0.01
2013-4-2,48,38,28,26,15,7,67,42,19,0.00,40.00,7,3,14,0.00
2013-4-3,49,38,27,18,12,7,58,35,22,0.00,40.00,6,4,12,0.00
2013-4-4,44,37,32,35,21,8,97,58,28,0.00,40.00,8,4,15,0.55
2013-4-5,59,45,36,41,33,24,98,69,33,0.00,40.00,7,3,14,0.14
2013-4-6,66,51,33,34,28,23,78,47,20,0.00,40.00,6,3,14,0.01
2013-4-7,69,58,51,40,33,28,46,39,31,0.00,40.00,7,4,17,0.00
2013-4-8,71,60,48,48,43,35,77,53,40,0.00,40.00,7,3,17,0.00
2013-4-9,79,65,53,52,48,45,76,56,33,0.00,40.00,8,3,15,0.00
2013-4-10,81,71,58,54,50,44,72,49,31,0.00,40.00,7,4,16,0.00
2013-4-11,79,69,61,55,50,42,73,53,27,0.00,40.00,7,4,20,0.03
2013-4-12,64,55,44,55,46,31,97,75,45,0.00,40.00,8,4,17,0.91
2013-4-13,65,52,38,38,33,26,85,52,24,0.00,40.00,7,3,16,0.01
2013-4-14,73,57,40,42,33,31,74,46,22,0.00,40.00,8,3,17,0.01
2013-4-15,69,58,50,54,49,42,94,75,46,0.00,40.00,6,5,16,0.09
2013-4-16,79,66,55,55,52,48,80,61,39,0.00,40.00,6,4,17,0.01
2013-4-17,72,60,56,59,56,53,98,86,61,0.00,40.00,7,3,16,1.50
2013-4-18,75,66,56,58,54,47,89,65,42,0.00,40.00,9,5,21,0.04
2013-4-19,65,56,40,60,49,31,96,77,58,0.00,40.00,10,5,21,0.93
2013-4-20,54,43,30,31,25,20,79,52,29,0.00,40.00,6,4,16,0.15
2013-4-21,60,46,30,31,26,22,81,50,27,0.00,40.00,8,4,14,0.00
2013-4-22,65,53,41,37,32,28,70,47,31,0.00,40.00,8,4,14,0.00
2013-4-23,70,57,43,39,31,23,47,38,27,0.00,40.00,7,3,14,0.00
2013-4-24,68,56,38,57,45,37,96,69,46,0.00,40.00,7,4,17,0.23
2013-4-25,61,46,33,37,30,22,95,61,26,0.00,40.00,5,2,12,0.05
2013-4-26,65,51,34,36,31,25,88,51,27,0.00,40.00,4,2,9,0.00
2013-4-27,58,52,49,50,42,33,97,70,46,0.00,40.00,7,3,14,0.24
2013-4-28,55,51,48,51,47,-100,97,91,81,0.00,40.00,10,5,20,0.60
2013-4-29,63,56,51,54,51,48,96,85,68,0.00,40.00,3,2,10,0.09
2013-4-30,75,66,46,57,48,43,98,57,35,0.00,40.00,5,2,11,0.07
2013-5-1,70,62,54,52,49,46,87,66,45,0.00,40.00,9,5,18,0.00
2013-5-2,68,61,53,52,49,46,83,66,52,0.00,40.00,10,6,21,0.00
2013-5-3,65,58,51,49,43,33,83,61,32,0.00,40.00,10,7,21,0.00
2013-5-4,59,54,46,45,38,30,70,56,44,0.00,40.00,12,9,26,0.00
2013-5-5,52,49,45,49,44,36,92,84,54,0.00,40.00,11,8,21,0.66
2013-5-6,64,55,51,54,50,47,96,82,59,0.00,40.00,8,4,18,0.62
2013-5-7,56,50,45,52,48,44,98,93,80,0.00,40.00,3,1,8,0.20
2013-5-8,62,55,49,55,51,49,99,90,71,0.00,40.00,5,2,13,0.05
2013-5-9,73,58,44,56,51,43,99,79,47,0.00,40.00,5,2,11,0.01
2013-5-10,70,60,53,58,49,-100,97,75,56,0.00,40.00,6,3,13,0.01
2013-5-11,68,60,51,60,54,46,97,81,61,0.00,40.00,5,4,17,0.14
2013-5-12,58,48,39,47,34,-100,96,64,35,0.00,40.00,6,3,16,0.15
2013-5-13,59,46,34,38,30,24,93,60,29,0.00,40.00,6,2,15,0.01
2013-5-14,72,53,34,49,38,28,93,62,37,0.00,40.00,6,3,16,0.00
2013-5-15,82,69,59,57,53,49,77,59,37,0.00,40.00,7,4,16,0.00
2013-5-16,78,59,58,57,32,-100,87,63,43,0.00,40.00,5,3,12,0.00
2013-5-17,76,63,54,63,51,-100,98,82,55,0.00,40.00,4,2,11,0.73
2013-5-18,69,63,58,63,59,57,98,88,70,0.00,40.00,6,2,14,0.73
2013-5-19,80,67,60,67,62,58,98,86,55,0.00,40.00,4,2,11,0.25
2013-5-20,77,66,59,67,62,58,99,87,63,0.00,40.00,3,2,9,0.51
2013-5-21,83,70,60,67,62,57,99,78,48,0.00,40.00,5,3,13,0.08
2013-5-22,81,66,57,64,58,54,95,78,44,0.00,40.00,5,2,14,0.15
2013-5-23,73,63,55,63,58,52,99,86,52,0.00,40.00,5,2,15,0.54
2013-5-24,60,52,42,54,43,34,97,76,43,0.00,40.00,6,3,13,0.61
2013-5-25,65,52,37,43,38,32,97,65,29,0.00,40.00,4,2,9,0.01
2013-5-26,70,58,49,49,45,41,88,63,40,0.00,40.00,4,2,11,0.00
2013-5-27,79,63,48,56,52,45,96,69,42,0.00,40.00,4,2,11,0.00
2013-5-28,80,70,60,59,56,52,85,62,41,0.00,40.00,6,3,16,0.00
2013-5-29,83,71,57,60,57,53,92,65,41,0.00,40.00,5,2,14,0.00
2013-5-30,83,72,58,62,57,51,91,60,34,0.00,40.00,6,3,12,0.00
2013-5-31,84,73,61,61,57,53,79,58,43,0.00,40.00,5,3,12,0.00
2013-6-1,83,74,65,63,59,55,78,60,43,0.00,40.00,4,3,12,0.00
2013-6-2,70,66,63,65,61,-100,98,88,63,0.00,40.00,4,2,19,0.47
2013-6-3,74,65,57,65,60,54,99,85,58,0.00,40.00,4,2,10,0.14
2013-6-4,78,64,52,61,56,52,99,78,50,0.00,40.00,4,2,9,0.01
2013-6-5,80,68,57,64,60,56,98,79,50,0.00,40.00,6,2,12,1.21
2013-6-6,78,68,62,65,62,60,97,83,61,0.00,40.00,4,2,11,1.21
2013-6-7,72,65,60,67,63,58,99,93,71,0.00,40.00,4,2,10,0.25
2013-6-8,77,66,56,62,59,55,99,80,50,0.00,40.00,4,2,10,0.24
2013-6-9,80,67,57,65,61,57,99,82,53,0.00,40.00,5,2,12,0.52
2013-6-10,74,67,62,65,62,57,97,86,71,0.00,40.00,5,3,14,1.14
2013-6-11,79,67,58,64,61,58,99,82,53,0.00,40.00,3,1,9,0.35
2013-6-12,90,75,61,72,66,60,98,75,45,0.00,40.00,4,2,12,0.00
2013-6-13,78,70,61,70,65,54,96,85,74,0.00,40.00,6,4,16,0.58
2013-6-14,74,64,53,60,55,51,98,75,47,0.00,40.00,4,2,10,0.02
2013-6-15,80,67,51,59,55,50,98,70,42,0.00,40.00,4,2,9,0.01
2013-6-16,78,69,59,66,62,56,95,78,63,0.00,40.00,5,2,12,0.00
2013-6-17,80,70,63,70,64,58,99,84,57,0.00,40.00,4,2,12,0.20
2013-6-18,69,63,58,64,60,57,98,92,78,0.00,40.00,3,2,10,1.49
2013-6-19,79,67,56,65,59,55,99,79,49,0.00,40.00,4,2,9,0.11
2013-6-20,79,66,57,65,60,56,99,83,53,0.00,40.00,4,1,7,0.00
2013-6-22,83,77,63,63,57,51,89,53,36,0.00,40.00,5,2,9,0.00
2013-6-23,84,70,58,66,60,56,94,71,44,0.00,40.00,3,2,9,0.00
2013-6-24,83,71,63,69,64,61,98,81,55,0.00,40.00,5,2,11,0.54
2013-6-25,79,70,63,70,66,63,99,90,64,0.00,40.00,3,1,10,0.05
2013-6-26,81,71,63,74,67,63,99,88,64,0.00,40.00,4,2,11,0.14
2013-6-27,78,69,62,70,66,61,98,90,72,0.00,40.00,4,2,12,0.79
2013-6-28,79,71,64,70,65,61,99,82,62,0.00,40.00,4,2,12,0.05
2013-6-29,78,69,60,66,61,58,98,76,52,0.00,40.00,4,2,11,0.02
2013-6-30,82,71,59,64,60,56,96,70,45,0.00,40.00,4,2,9,0.01
2013-7-1,81,69,61,69,63,59,99,84,49,0.00,40.00,5,2,12,0.03
2013-7-2,82,69,61,66,63,60,99,82,51,0.00,40.00,6,2,12,0.02
2013-7-3,75,67,63,67,64,62,98,91,73,0.00,40.00,5,3,11,0.02
2013-7-4,79,68,62,70,64,60,98,90,73,0.00,40.00,5,3,13,0.02
2013-7-5,78,70,64,66,64,63,97,83,64,0.00,40.00,6,3,15,0.01
2013-7-6,80,70,65,70,65,61,98,86,59,0.00,40.00,6,3,17,0.02
2013-7-7,74,68,64,69,65,63,99,93,75,0.00,40.00,3,2,9,0.02
2013-7-8,82,69,60,70,64,59,99,87,50,0.00,40.00,3,1,8,0.01
2013-7-9,85,74,62,71,66,61,99,80,54,0.00,40.00,4,1,9,0.03
2013-7-10,84,71,67,74,65,-100,99,87,69,0.00,40.00,3,2,8,0.02
2013-7-11,81,70,65,71,66,62,99,87,64,0.00,40.00,4,1,10,0.02
2013-7-12,78,68,62,67,62,59,96,83,59,0.00,40.00,4,2,9,0.01
2013-7-13,81,69,59,63,60,57,98,75,52,0.00,40.00,7,4,16,0.01
2013-7-14,80,72,64,70,65,61,98,80,56,0.00,40.00,8,4,19,0.01
2013-7-15,84,73,64,67,63,61,95,72,47,0.00,40.00,5,3,12,0.01
2013-7-16,88,81,69,66,65,62,91,59,45,0.00,40.00,4,2,9,0.01
2013-7-17,86,71,65,74,68,64,99,90,63,0.00,40.00,4,1,12,0.01
2013-7-18,87,74,65,74,70,65,99,88,60,0.00,40.00,3,1,9,0.01
2013-7-19,86,72,63,73,68,63,99,87,60,0.00,40.00,4,1,9,0.01
2013-7-20,86,73,64,72,66,-100,99,82,60,0.00,40.00,4,2,9,0.01
2013-7-21,79,71,66,72,68,65,99,92,74,0.00,40.00,3,1,10,0.01
2013-7-22,78,70,65,70,66,64,99,89,69,0.00,40.00,4,2,11,0.01
2013-7-23,85,73,66,70,66,62,99,82,47,0.00,40.00,3,2,9,0.01
2013-7-24,82,73,65,72,66,62,99,81,53,0.00,40.00,4,2,8,0.01
2013-7-25,76,67,57,62,59,53,94,76,52,0.00,40.00,4,2,10,0.01
2013-7-26,82,68,53,64,59,52,98,77,51,0.00,40.00,4,1,11,0.00
2013-7-27,81,71,63,68,63,60,98,78,54,0.00,40.00,4,2,9,0.00
2013-7-28,78,68,59,65,60,54,99,78,46,0.00,40.00,4,2,14,0.01
2013-7-29,76,62,50,57,52,49,98,76,45,0.00,40.00,3,1,9,0.00
2013-7-30,76,64,52,62,56,51,98,79,47,0.00,40.00,3,1,5,0.00
2013-7-31,68,64,60,66,62,59,98,93,83,0.00,40.00,5,1,12,0.28
2013-8-1,78,69,63,69,65,61,99,88,62,0.00,40.00,3,1,10,0.34
2013-8-2,81,68,57,67,60,56,99,79,45,0.00,40.00,4,1,7,0.01
2013-8-3,80,70,60,67,63,59,97,81,58,0.00,40.00,4,1,9,0.00
2013-8-4,80,70,61,68,62,57,99,78,48,0.00,40.00,4,2,9,0.22
2013-8-5,80,67,55,65,60,54,98,80,44,0.00,40.00,4,1,8,0.00
2013-8-6,80,69,60,66,63,59,98,83,57,0.00,40.00,4,1,9,0.00
2013-8-7,74,70,67,70,67,65,97,90,81,0.00,40.00,5,2,11,0.14
2013-8-8,76,71,68,71,68,65,96,92,82,0.00,40.00,3,2,9,0.65
2013-8-9,83,73,68,74,69,65,98,86,65,0.00,40.00,5,3,15,0.15
2013-8-10,79,71,65,77,68,62,99,92,77,0.00,40.00,3,1,7,0.96
2013-8-11,81,71,65,72,68,65,99,91,70,0.00,40.00,4,2,11,0.45
2013-8-12,81,72,67,71,68,65,99,90,68,0.00,40.00,4,2,12,0.29
2013-8-13,78,68,63,71,65,-100,99,92,70,0.00,40.00,4,2,9,0.68
2013-8-14,71,62,52,63,54,49,99,79,52,0.00,40.00,4,2,8,0.09
2013-8-15,73,58,48,61,47,-100,99,80,58,0.00,40.00,5,2,10,0.00
2013-8-16,77,64,54,61,53,-100,95,73,50,0.00,40.00,5,2,9,0.00
2013-8-17,70,64,57,61,56,52,96,78,54,0.00,40.00,5,2,9,0.00
2013-8-18,76,66,61,65,60,-100,96,84,62,0.00,40.00,5,2,12,0.03
2013-8-19,74,66,63,70,59,-100,97,87,71,0.00,40.00,3,1,6,0.21
2013-8-20,81,70,61,74,66,61,99,89,68,0.00,40.00,4,1,7,0.08
2013-8-21,78,69,61,70,65,60,99,89,65,0.00,40.00,5,1,9,0.04
2013-8-22,84,70,60,70,65,59,99,84,59,0.00,40.00,3,1,8,0.02
2013-8-23,80,69,61,69,64,61,99,87,57,0.00,40.00,3,1,8,0.03
2013-8-24,80,68,58,68,57,49,99,73,37,0.00,40.00,6,2,11,0.01
2013-8-25,78,65,52,57,52,-100,95,66,37,0.00,40.00,5,2,9,0.00
2013-8-26,81,66,54,64,59,53,98,81,50,0.00,40.00,3,1,9,0.00
2013-8-27,79,67,61,72,64,60,99,91,66,0.00,40.00,3,1,7,0.00
2013-8-28,86,79,72,70,67,63,82,67,55,0.00,40.00,4,2,9,0.00
2013-8-29,85,74,66,74,68,64,97,81,52,0.00,40.00,4,2,9,0.05
2013-8-30,85,72,63,68,65,63,99,81,48,0.00,40.00,4,2,10,0.01
2013-8-31,82,71,65,73,67,64,99,87,65,0.00,40.00,5,2,10,0.15
2013-9-1,77,68,65,72,65,-100,98,92,75,0.00,40.00,4,1,12,0.42
2013-9-2,82,71,64,71,67,64,99,87,62,0.00,40.00,3,1,10,0.05
2013-9-3,78,68,59,68,62,57,99,84,55,0.00,40.00,4,2,10,0.13
2013-9-4,81,64,53,61,56,52,99,78,37,0.00,40.00,3,1,7,0.01
2013-9-5,79,64,51,61,56,51,99,80,51,0.00,40.00,4,1,9,0.00
2013-9-6,80,66,55,65,57,54,99,78,46,0.00,40.00,4,1,9,0.00
2013-9-7,81,66,53,64,59,52,99,80,51,0.00,40.00,3,1,9,0.00
2013-9-8,79,67,60,69,61,-100,99,84,60,0.00,40.00,4,1,8,0.00
2013-9-9,84,71,59,69,63,59,99,80,50,0.00,40.00,5,2,12,0.00
2013-9-10,84,73,64,68,65,62,97,77,51,0.00,40.00,4,2,9,0.00
2013-9-11,81,70,64,72,66,63,99,91,68,0.00,40.00,2,1,6,0.05
2013-9-12,83,70,63,71,65,57,99,87,58,0.00,40.00,4,1,14,0.15
2013-9-13,70,62,53,64,55,45,99,78,47,0.00,40.00,5,2,9,0.14
2013-9-14,68,55,44,49,46,43,98,75,46,0.00,40.00,4,2,10,0.00
2013-9-15,74,57,47,56,50,-100,98,82,49,0.00,40.00,3,1,9,0.00
2013-9-16,71,61,54,63,57,53,99,87,67,0.00,40.00,4,1,7,0.00
2013-9-17,73,61,49,57,54,49,99,79,55,0.00,40.00,6,3,12,0.00
2013-9-18,58,56,54,58,52,50,99,86,82,0.00,40.00,4,2,10,0.32
2013-9-19,76,64,58,66,61,58,99,92,66,0.00,40.00,4,1,9,0.03
2013-9-20,79,68,60,68,63,60,100,85,60,0.00,40.00,4,2,9,0.02
2013-9-21,65,63,55,63,61,55,99,94,88,0.00,40.00,3,2,11,0.90
2013-9-22,69,55,47,57,49,-100,100,86,58,0.00,40.00,5,2,10,0.13
2013-9-23,72,55,43,58,50,43,100,87,60,0.00,40.00,3,2,8,0.01
2013-9-24,75,60,47,61,54,47,100,84,49,0.00,40.00,4,2,6,0.00
2013-9-25,66,60,54,63,59,54,100,95,85,0.00,40.00,3,2,7,0.11
2013-9-26,73,62,53,60,56,49,100,85,48,0.00,40.00,4,2,9,0.12
2013-9-27,76,60,49,60,51,46,100,79,39,0.00,40.00,4,2,8,0.02
2013-9-28,74,60,51,57,54,51,99,80,52,0.00,40.00,3,2,8,0.00
2013-9-29,69,59,54,60,52,-100,98,82,63,0.00,40.00,3,2,8,0.00
2013-9-30,69,60,51,62,56,51,100,87,62,0.00,40.00,3,1,7,0.00
2013-10-1,62,58,55,57,56,55,99,94,83,0.00,40.00,1,1,2,0.00
2013-10-2,79,62,53,63,56,53,100,84,45,0.00,40.00,4,2,8,0.00
2013-10-3,78,64,57,65,59,57,100,86,51,0.00,40.00,3,2,7,0.00
2013-10-4,80,65,55,66,59,55,100,84,52,0.00,40.00,3,2,7,0.00
2013-10-5,81,66,56,68,60,56,100,83,50,0.00,40.00,6,2,12,0.00
2013-10-6,80,69,61,62,59,55,93,72,50,0.00,40.00,5,3,13,0.00
2013-10-7,67,56,47,61,49,42,99,80,47,0.00,40.00,4,2,15,0.42
2013-10-8,68,51,38,47,43,38,99,78,42,0.00,40.00,6,3,14,0.05
2013-10-9,72,56,42,50,46,41,98,73,40,0.00,40.00,4,2,7,0.00
2013-10-10,71,54,42,48,45,41,98,76,39,0.00,40.00,4,2,10,0.00
2013-10-11,73,58,44,54,47,42,99,72,37,0.00,40.00,5,2,11,0.00
2013-10-12,69,60,50,59,55,49,99,84,69,0.00,40.00,4,2,8,0.00
2013-10-13,68,60,54,61,56,-100,100,90,70,0.00,40.00,4,2,8,0.36
2013-10-14,71,63,56,62,58,55,100,86,62,0.00,40.00,4,2,10,0.36
2013-10-15,74,60,53,60,55,52,99,83,59,0.00,40.00,4,2,7,0.00
2013-10-16,64,59,56,57,56,52,96,87,77,0.00,40.00,3,2,11,0.00
2013-10-17,62,57,48,61,56,47,99,96,92,0.00,40.00,4,2,10,0.08
2013-10-18,62,48,38,47,41,38,100,81,45,0.00,40.00,4,1,6,0.02
2013-10-19,56,48,41,47,44,37,99,88,63,0.00,40.00,8,2,18,0.01
2013-10-20,61,44,30,38,32,-100,98,71,33,0.00,40.00,4,2,8,0.01
2013-10-21,64,49,35,44,38,33,97,69,41,0.00,40.00,5,2,15,0.00
2013-10-22,53,48,46,48,44,40,100,86,61,0.00,40.00,4,2,11,0.03
2013-10-23,46,40,31,46,37,30,100,92,71,0.00,40.00,5,2,15,0.10
2013-10-24,42,34,28,35,31,27,98,91,70,0.00,40.00,3,1,10,0.10
2013-10-25,38,31,26,32,26,22,98,83,59,0.00,40.00,4,2,12,0.09
2013-10-26,50,37,21,31,25,20,95,66,36,0.00,40.00,7,2,15,0.01
2013-10-27,61,49,38,45,36,-100,87,63,46,0.00,40.00,5,2,15,0.01
2013-10-28,58,52,48,52,47,-100,97,86,73,0.00,40.00,5,2,10,0.09
2013-10-29,63,56,51,54,50,46,99,81,58,0.00,40.00,4,2,9,0.04
2013-10-30,66,60,52,59,53,44,98,80,67,0.00,40.00,5,3,13,0.41
2013-10-31,64,61,57,54,52,49,86,73,62,0.00,40.00,10,4,26,0.02
2013-11-1,66,59,46,60,50,40,97,73,44,0.00,40.00,7,3,26,0.51
2013-11-2,57,48,41,42,36,31,84,66,41,0.00,40.00,5,3,15,0.01
2013-11-3,50,40,33,37,32,-100,89,74,46,0.00,40.00,4,2,10,0.00
2013-11-4,58,44,31,32,29,25,91,58,35,0.00,40.00,6,3,12,0.00
2013-11-5,62,49,41,32,25,19,61,42,19,0.00,40.00,5,3,11,0.00
2013-11-6,68,56,38,50,43,24,90,65,45,0.00,40.00,9,3,20,0.00
2013-11-7,58,45,34,52,39,26,99,80,58,0.00,40.00,6,3,17,0.25
2013-11-8,46,36,29,30,24,19,82,63,37,0.00,40.00,5,2,11,0.01
2013-11-9,51,40,27,29,22,-100,82,54,34,0.00,40.00,7,3,16,0.00
2013-11-10,60,46,31,37,25,19,72,46,26,0.00,40.00,7,3,16,0.00
2013-11-11,64,42,28,30,20,12,85,50,14,0.00,40.00,5,2,9,0.00
2013-11-12,49,31,22,34,22,14,96,71,32,0.00,40.00,8,5,16,0.02
2013-11-13,36,26,17,19,16,14,90,69,43,0.00,40.00,4,2,11,0.02
2013-11-14,51,33,20,23,15,10,80,53,19,0.00,40.00,5,2,11,0.02
2013-11-15,53,42,29,46,28,13,99,60,35,0.00,40.00,5,2,10,0.05
2013-11-16,61,52,45,52,46,-100,99,84,62,0.00,40.00,6,2,14,0.05
2013-11-17,64,57,53,60,52,47,98,84,63,0.00,40.00,8,5,24,0.35
2013-11-18,61,50,39,60,37,25,98,63,35,0.00,40.00,8,4,16,0.61
2013-11-19,44,36,29,27,24,22,80,63,45,0.00,40.00,6,4,12,0.00
2013-11-20,50,39,30,25,23,19,77,53,34,0.00,40.00,7,4,14,0.00
2013-11-21,64,51,37,49,39,21,82,64,51,0.00,40.00,6,4,16,0.00
2013-11-22,56,53,47,54,51,46,99,91,80,0.00,40.00,5,3,12,0.18
2013-11-23,47,36,24,46,30,-100,99,82,59,0.00,40.00,6,4,19,0.19
2013-11-24,26,20,14,12,5,-1,70,53,34,0.00,40.00,7,4,19,0.01
2013-11-25,39,27,14,29,11,3,91,53,27,0.00,40.00,5,2,10,0.00
2013-11-26,46,38,31,45,37,26,99,96,82,0.00,40.00,6,3,13,1.48
2013-11-27,32,24,17,31,21,10,97,88,73,0.00,40.00,7,5,16,0.10
2013-11-28,38,21,9,21,14,6,88,74,50,0.00,40.00,4,2,9,0.28
2013-11-29,44,28,19,23,19,15,87,70,39,0.00,40.00,4,2,7,0.01
2013-11-30,51,38,25,25,20,-100,87,52,35,0.00,40.00,5,2,12,0.00
2013-12-1,47,40,33,31,27,22,71,59,50,0.00,40.00,6,3,11,0.00
2013-12-2,49,43,39,40,35,30,90,74,64,0.00,40.00,3,1,7,0.00
2013-12-3,56,47,42,47,43,40,96,87,69,0.00,40.00,4,2,9,0.00
2013-12-4,63,55,45,52,47,42,96,77,59,0.00,40.00,7,3,14,0.00
2013-12-5,66,61,58,60,55,49,96,80,71,0.00,40.00,5,3,13,0.04
2013-12-6,62,40,32,60,39,31,99,97,92,0.00,40.00,6,4,14,1.64
2013-12-7,32,28,26,31,26,-100,98,96,95,0.00,40.00,5,4,10,0.82
2013-12-8,44,35,27,44,35,26,99,98,97,0.00,40.00,5,2,11,1.41
2013-12-9,48,44,36,47,42,35,100,96,84,0.00,40.00,5,3,13,0.60
2013-12-10,36,29,21,35,26,17,99,88,72,0.00,40.00,5,3,15,0.24
2013-12-11,40,28,17,23,18,15,90,69,42,0.00,40.00,6,2,13,0.05
2013-12-12,32,25,20,19,11,1,77,58,27,0.00,40.00,5,3,12,0.02
2013-12-13,44,30,18,19,12,6,77,49,29,0.00,40.00,4,2,8,0.00
2013-12-14,44,40,34,43,31,-100,99,76,36,0.00,40.00,10,4,23,0.57
2013-12-15,43,30,25,43,28,22,99,90,79,0.00,40.00,8,4,14,0.05
2013-12-16,42,32,25,31,26,22,92,80,57,0.00,40.00,6,4,13,0.02
2013-12-17,45,38,31,33,30,21,94,75,59,0.00,40.00,8,5,17,0.10
2013-12-18,39,30,23,22,18,14,77,60,41,0.00,40.00,4,3,12,0.05
2013-12-19,53,41,27,21,16,12,64,38,23,0.00,40.00,7,3,16,0.00
2013-12-20,58,48,40,44,29,18,77,49,35,0.00,40.00,5,3,16,0.00
2013-12-21,67,59,51,56,49,-100,77,70,61,0.00,40.00,10,5,22,0.02
2013-12-22,66,56,52,60,52,48,99,89,71,0.00,40.00,7,4,23,1.49
2013-12-23,52,38,27,52,36,22,99,94,81,0.00,40.00,5,4,13,0.18
2013-12-24,27,22,12,22,16,8,87,76,60,0.00,40.00,6,3,14,0.03
2013-12-25,37,23,10,17,12,7,88,64,36,0.00,40.00,5,2,12,0.01
2013-12-26,41,32,24,25,19,13,75,59,42,0.00,40.00,5,3,11,0.01
2013-12-27,48,32,21,19,16,12,79,56,25,0.00,40.00,4,1,8,0.00
2013-12-28,46,34,25,40,21,-100,95,63,37,0.00,40.00,7,1,13,0.16
2013-12-29,44,41,35,43,39,33,99,95,89,0.00,40.00,7,3,17,1.53
2013-12-30,37,32,29,35,29,25,98,92,80,0.00,40.00,4,2,9,0.06
2013-12-31,38,29,24,27,20,15,95,72,42,0.00,40.00,5,2,17,0.02
2014-1-1,49,32,22,23,18,12,90,60,27,0.00,40.00,4,2,9,0.00
2014-1-2,38,32,13,37,27,9,97,85,58,0.00,40.00,6,3,16,0.19